User: anonymous   Login
Location: Unspecified
(0.0000°N, 0.0000°E)
Time: 02:06:32
(UTC+00:00)
Language:

SIRIUS-1 - Orbit

View from above orbital plane
View from above orbital plane
View from above satellite
View from above satellite

Ground track
Ground track

The orbit is defined by the following mean orbital elements,

1 26390U          26084.17709476 +.00000000 +00000-0 +00000-0 0 00004
2 26390  59.3779 161.5999 0001818 308.4252  50.4730  1.57877157    01
Epoch (UTC): 25 March 2026 04:15:00
Eccentricity: 0.0001818
inclination: 59.3779°
perigee height: 24771 km
apogee height: 24782 km
right ascension of ascending node: 161.5999°
argument of perigee: 308.4252°
revolutions per day: 1.57877157
mean anomaly at epoch: 50.4730°

The dashed part of the orbit path shows where the satellite is in the earth's shadow,  

DLR